OPS 4682 DEB, 38425

Orbit data source: Space-Track

OPS 4682 DEB, 38425 is space debris in LEO originally from a launch on Sat, 03 Apr 1965 UTC launched from the Air Force Western Test Range (AFWTR). Debris objects in space refer to the collection of defunct objects orbiting the Earth. Examples of debris include non-operational satellites, rocket bodies, and fragments generated from explosions, collisions, or faulty payload assembly.

Loading next visibility...
Identifier
38425, 1965-027EE
Orbit
LEO
Country
Flag of USUS
Related business
Manufacturer
Unknown
Mission
Spacecraft
Bus & Motor
Unknown
Mass
Unknown
Launch date (UTC)
1965-04-03 (61 years ago)
Launch vehicle
Unknown
Launch site
Air Force Western Test Range (AFWTR)
Object type
Payload
Rocket body
Debris
Shape & HBR
Unknown shape, 0.1 m
Radar Cross Section
Small (<0.1 m²)

Expand to show TLE details & history
Last TLE update: 20 hours ago

TLE from 20 hours ago
0 OPS 4682 DEB
1 38425U 65027EE  25293.88658923  .00000667  00000-0  23435-2 0  9990
2 38425  90.2475   2.3750 0037097 138.0688 222.3282 12.95067216631581
Epoch: 2025-10-20T21:16Z
TLE epoch observation values (Epoch: 2025-10-20T21:16:41.309Z)
Latitude
-0.00007°
Longitude
13.62041°
Altitude
1,305.41 km
Speed
7.194 km/s
True Right ascension
00h 09m 30s
True Declination
0° 00' 00"
Sunlit
Object was in full shadow at epoch
Visualization orbit readout
Latitude
Unknown
Longitude
Unknown
Altitude
Unknown
Speed
Unknown
Apparent Right ascension
Unknown
Apparent Declination
Unknown
Sunlit
N/A
Visualization observer readout
Local Sidereal Time
12:40:33
Azimuth
Unknown
Elevation
Unknown
Doppler factor
Unknown
Orbital elements
Apogee altitude
1,307.013 km
Perigee altitude
1,250.205 km
Semi-major axis
7,656.746 km
Eccentricity
0.00371
Inclination
90.2475°
RAAN
2.375°
Arg. of periapsis
138.0688°
True anomaly
222.04293°
Mean anomaly
222.3282°
Eccentric anomaly
222.18547°
Mean motion
3.23949 °/min
Orbital period
111.13 mins
BSTAR
0.0023435
Loading maneuver chart data...
Computing Atmospheric mass density...
Loading historical data...
Loading historical data...
Loading historical data...
Loading historical data...
Loading historical data...
Loading historical data...
Loading historical data...

Documentation

Showing up to 5 results
|